Time,TemperatureF,DewpointF,PressureIn,WindDirection,WindDirectionDegrees,WindSpeedMPH,WindSpeedGustMPH,Humidity,HourlyPrecipIn,Conditions,Clouds,dailyrainin,SolarRadiationWatts/m^2,SoftwareType,DateUTC
2013-08-28 15:29:00,78.6,71.2,29.86,WNW,292,0.0,0.0,78,0.00,,OVC,0.00,0.00,VWS V14.00,2013-08-28 19:29:00,
2013-08-28 16:13:00,78.6,71.2,29.86,WNW,292,0.0,0.0,78,0.00,,OVC,0.00,0.00,VWS V14.00,2013-08-28 20:13:00,
2013-08-28 16:14:00,78.6,71.2,12.37,WNW,292,0.0,0.0,78,0.00,,OVC,99.99,0.00,VWS V14.00,2013-08-28 20:14:00,
2013-08-28 16:15:00,79.3,71.1,29.85,WNW,292,0.0,0.0,76,0.00,,OVC,0.00,0.00,VWS V14.00,2013-08-28 20:15:00,
2013-08-28 16:20:00,79.7,71.1,29.85,West,270,0.0,0.0,75,0.00,,OVC,0.00,0.00,VWS V14.00,2013-08-28 20:20:00,
2013-08-28 16:25:00,80.2,71.2,29.85,WNW,292,0.0,0.0,74,0.00,,OVC,0.00,0.00,VWS V14.00,2013-08-28 20:25:00,
2013-08-28 16:30:00,80.2,71.2,29.85,NNW,338,3.5,3.5,74,0.00,,OVC,0.00,0.00,VWS V14.00,2013-08-28 20:30:00,
2013-08-28 16:35:00,80.2,70.8,29.85,NNW,338,0.0,0.0,73,0.00,,OVC,0.00,0.00,VWS V14.00,2013-08-28 20:35:00,
2013-08-28 16:40:00,80.0,71.0,29.85,NW,315,0.0,0.0,74,0.00,,OVC,0.00,0.00,VWS V14.00,2013-08-28 20:40:00,
2013-08-28 16:45:00,79.8,70.8,29.85,NW,315,3.5,3.5,74,0.00,,OVC,0.00,0.00,VWS V14.00,2013-08-28 20:45:00,
2013-08-28 16:50:00,79.5,70.5,29.85,WNW,292,0.0,0.0,74,0.00,,OVC,0.00,0.00,VWS V14.00,2013-08-28 20:50:00,
2013-08-28 16:55:00,79.3,70.3,29.85,West,270,0.0,0.0,74,0.00,,OVC,0.00,0.00,VWS V14.00,2013-08-28 20:55:00,
2013-08-28 17:00:00,78.9,69.9,29.85,West,270,0.0,0.0,74,0.00,,OVC,0.00,0.00,VWS V14.00,2013-08-28 21:00:00,
2013-08-28 17:05:00,78.6,70.0,29.85,West,270,0.0,0.0,75,0.00,,OVC,0.00,0.00,VWS V14.00,2013-08-28 21:05:00,
2013-08-28 17:10:00,78.6,70.0,29.84,West,270,0.0,0.0,75,0.00,,OVC,0.00,0.00,VWS V14.00,2013-08-28 21:10:00,
2013-08-28 17:15:00,78.4,69.8,29.85,West,270,0.0,0.0,75,0.00,,OVC,0.00,0.00,VWS V14.00,2013-08-28 21:15:00,
2013-08-28 17:20:00,78.4,69.8,29.85,West,270,0.0,0.0,75,0.00,,OVC,0.00,0.00,VWS V14.00,2013-08-28 21:20:00,
2013-08-28 17:25:00,78.0,69.8,29.85,West,270,0.0,0.0,76,0.00,,OVC,0.00,0.00,VWS V14.00,2013-08-28 21:25:00,
2013-08-28 17:30:00,78.0,70.2,29.85,NNW,338,0.0,0.0,77,0.00,,OVC,0.00,0.00,VWS V14.00,2013-08-28 21:30:00,
2013-08-28 17:35:00,77.9,70.5,29.85,NNW,338,0.0,0.0,78,0.00,,OVC,0.00,0.00,VWS V14.00,2013-08-28 21:35:00,
2013-08-28 17:40:00,77.7,70.3,29.85,NNW,338,0.0,0.0,78,0.00,,OVC,0.00,0.00,VWS V14.00,2013-08-28 21:40:00,
2013-08-28 17:45:00,77.5,70.1,29.85,NNW,338,0.0,0.0,78,0.00,,OVC,0.00,0.00,VWS V14.00,2013-08-28 21:45:00,
2013-08-28 17:50:00,77.5,70.5,29.85,NNW,338,0.0,0.0,79,0.00,,OVC,0.00,0.00,VWS V14.00,2013-08-28 21:50:00,
2013-08-28 17:55:00,77.3,70.3,29.85,NNW,338,0.0,0.0,79,0.00,,OVC,0.00,0.00,VWS V14.00,2013-08-28 21:55:00,
2013-08-28 18:00:00,77.1,70.5,29.85,NNW,338,0.0,0.0,80,0.00,,OVC,0.00,0.00,VWS V14.00,2013-08-28 22:00:00,
2013-08-28 18:05:00,76.8,70.2,29.85,NNW,338,0.0,0.0,80,0.00,,OVC,0.00,0.00,VWS V14.00,2013-08-28 22:05:00,
2013-08-28 18:10:00,76.8,70.2,29.85,NNW,338,0.0,0.0,80,0.00,,OVC,0.00,0.00,VWS V14.00,2013-08-28 22:10:00,
2013-08-28 18:15:00,76.6,70.0,29.85,NNW,338,0.0,0.0,80,0.00,,OVC,0.00,0.00,VWS V14.00,2013-08-28 22:15:00,
2013-08-28 18:20:00,76.8,70.2,29.85,NNW,338,0.0,0.0,80,0.00,,OVC,0.00,0.00,VWS V14.00,2013-08-28 22:20:00,
2013-08-28 18:25:00,76.6,70.3,29.85,NNW,338,0.0,0.0,81,0.00,,OVC,0.00,0.00,VWS V14.00,2013-08-28 22:25:00,
2013-08-28 18:30:00,76.4,70.1,29.85,NNW,338,0.0,0.0,81,0.00,,OVC,0.00,0.00,VWS V14.00,2013-08-28 22:30:00,
2013-08-28 18:35:00,76.4,70.5,29.85,NNW,338,0.0,0.0,82,0.00,,OVC,0.00,0.00,VWS V14.00,2013-08-28 22:35:00,
2013-08-28 18:40:00,76.2,70.3,29.85,NNW,338,0.0,0.0,82,0.00,,OVC,0.00,0.00,VWS V14.00,2013-08-28 22:40:00,
2013-08-28 18:45:00,76.1,70.2,29.85,NNW,338,0.0,0.0,82,0.00,,OVC,0.00,0.00,VWS V14.00,2013-08-28 22:45:00,
2013-08-28 18:50:00,75.9,70.0,29.85,NNW,338,0.0,0.0,82,0.00,,OVC,0.00,0.00,VWS V14.00,2013-08-28 22:50:00,
2013-08-28 18:55:00,75.9,70.0,29.85,NNW,338,0.0,0.0,82,0.00,,OVC,0.00,0.00,VWS V14.00,2013-08-28 22:55:00,
2013-08-28 19:00:00,75.7,69.8,29.85,NNW,338,0.0,0.0,82,0.00,,OVC,0.00,0.00,VWS V14.00,2013-08-28 23:00:00,
2013-08-28 19:05:00,75.5,70.0,29.85,NNW,338,0.0,0.0,83,0.00,,OVC,0.00,0.00,VWS V14.00,2013-08-28 23:05:00,
2013-08-28 19:10:00,75.5,70.0,29.85,NNW,338,0.0,0.0,83,0.00,,OVC,0.00,0.00,VWS V14.00,2013-08-28 23:10:00,
2013-08-28 19:15:00,75.3,69.8,29.85,NNW,338,0.0,0.0,83,0.00,,OVC,0.00,0.00,VWS V14.00,2013-08-28 23:15:00,
2013-08-28 19:20:00,75.0,69.5,29.85,NNW,338,0.0,0.0,83,0.00,,OVC,0.00,0.00,VWS V14.00,2013-08-28 23:20:00,
2013-08-28 19:25:00,75.0,69.5,29.85,NNW,338,0.0,0.0,83,0.00,,OVC,0.00,0.00,VWS V14.00,2013-08-28 23:25:00,
2013-08-28 19:30:00,75.0,69.5,29.85,North,0,0.0,0.0,83,0.00,,OVC,0.00,0.00,VWS V14.00,2013-08-28 23:30:00,
2013-08-28 19:35:00,74.8,69.7,29.85,North,0,0.0,0.0,84,0.00,,OVC,0.00,0.00,VWS V14.00,2013-08-28 23:35:00,
2013-08-28 19:40:00,74.6,69.4,29.85,North,0,0.0,0.0,84,0.00,,OVC,0.00,0.00,VWS V14.00,2013-08-28 23:40:00,
2013-08-28 19:45:00,74.4,69.3,29.85,North,0,0.0,0.0,84,0.00,,OVC,0.00,0.00,VWS V14.00,2013-08-28 23:45:00,
2013-08-28 19:50:00,74.4,69.3,29.85,North,0,0.0,0.0,84,0.00,,OVC,0.00,0.00,VWS V14.00,2013-08-28 23:50:00,
2013-08-28 19:55:00,74.3,69.5,29.85,North,0,0.0,0.0,85,0.00,,OVC,0.00,0.00,VWS V14.00,2013-08-28 23:55:00,
2013-08-28 20:00:00,74.3,69.5,29.85,North,0,0.0,0.0,85,0.00,,OVC,0.00,0.00,VWS V14.00,2013-08-29 00:00:00,
2013-08-28 20:05:00,74.1,69.3,29.86,North,0,0.0,0.0,85,0.00,,OVC,0.00,0.00,VWS V14.00,2013-08-29 00:05:00,
2013-08-28 20:10:00,74.1,69.3,29.86,North,0,0.0,0.0,85,0.00,,OVC,0.00,0.00,VWS V14.00,2013-08-29 00:10:00,
2013-08-28 20:15:00,73.9,69.1,29.86,North,0,0.0,0.0,85,0.00,,OVC,0.00,0.00,VWS V14.00,2013-08-29 00:15:00,
2013-08-28 20:20:00,73.9,69.1,29.86,North,0,0.0,0.0,85,0.00,,OVC,0.00,0.00,VWS V14.00,2013-08-29 00:20:00,
2013-08-28 20:25:00,73.7,68.9,29.86,North,0,0.0,0.0,85,0.00,,OVC,0.00,0.00,VWS V14.00,2013-08-29 00:25:00,
2013-08-28 20:30:00,73.5,68.7,29.86,North,0,0.0,0.0,85,0.00,,OVC,0.00,0.00,VWS V14.00,2013-08-29 00:30:00,
2013-08-28 20:35:00,73.5,68.7,29.86,North,0,0.0,0.0,85,0.00,,OVC,0.00,0.00,VWS V14.00,2013-08-29 00:35:00,
2013-08-28 20:40:00,73.5,68.7,29.87,North,0,0.0,0.0,85,0.00,,OVC,0.00,0.00,VWS V14.00,2013-08-29 00:40:00,
2013-08-28 20:45:00,73.4,68.6,29.86,North,0,0.0,0.0,85,0.00,,OVC,0.00,0.00,VWS V14.00,2013-08-29 00:45:00,
2013-08-28 20:50:00,73.2,68.8,29.86,North,0,0.0,0.0,86,0.00,,OVC,0.00,0.00,VWS V14.00,2013-08-29 00:50:00,
2013-08-28 20:55:00,73.2,68.8,29.86,North,0,0.0,0.0,86,0.00,,OVC,0.00,0.00,VWS V14.00,2013-08-29 00:55:00,
2013-08-28 21:00:00,73.0,68.6,29.86,North,0,0.0,0.0,86,0.00,,OVC,0.00,0.00,VWS V14.00,2013-08-29 01:00:00,
2013-08-28 21:05:00,72.8,68.4,29.86,North,0,0.0,0.0,86,0.00,,OVC,0.00,0.00,VWS V14.00,2013-08-29 01:05:00,
2013-08-28 21:10:00,72.6,68.2,29.86,North,0,0.0,0.0,86,0.00,,OVC,0.00,0.00,VWS V14.00,2013-08-29 01:10:00,
2013-08-28 21:15:00,72.6,68.2,29.86,North,0,0.0,0.0,86,0.00,,OVC,0.00,0.00,VWS V14.00,2013-08-29 01:15:00,
2013-08-28 21:20:00,72.6,68.5,29.86,North,0,0.0,0.0,87,0.00,,OVC,0.00,0.00,VWS V14.00,2013-08-29 01:20:00,
2013-08-28 21:25:00,72.6,68.5,29.86,North,0,0.0,0.0,87,0.00,,OVC,0.00,0.00,VWS V14.00,2013-08-29 01:25:00,
2013-08-28 21:30:00,72.5,68.4,29.86,North,0,0.0,0.0,87,0.00,,OVC,0.00,0.00,VWS V14.00,2013-08-29 01:30:00,
2013-08-28 21:35:00,72.5,68.4,29.87,North,0,0.0,0.0,87,0.00,,OVC,0.00,0.00,VWS V14.00,2013-08-29 01:35:00,
2013-08-28 21:40:00,72.6,68.5,29.87,NNE,22,0.0,0.0,87,0.00,,OVC,0.00,0.00,VWS V14.00,2013-08-29 01:40:00,
2013-08-28 21:45:00,72.6,68.5,29.87,South,180,0.0,0.0,87,0.00,,OVC,0.00,0.00,VWS V14.00,2013-08-29 01:45:00,
2013-08-28 21:50:00,72.6,68.8,29.87,NNE,22,0.0,0.0,88,0.00,,OVC,0.00,0.00,VWS V14.00,2013-08-29 01:50:00,
2013-08-28 21:55:00,72.6,68.8,29.87,ENE,68,0.0,0.0,88,0.00,,OVC,0.00,0.00,VWS V14.00,2013-08-29 01:55:00,
2013-08-28 22:00:00,72.6,68.8,29.87,ESE,112,0.0,0.0,88,0.00,,OVC,0.00,0.00,VWS V14.00,2013-08-29 02:00:00,
2013-08-28 22:05:00,72.6,68.8,29.87,ESE,112,0.0,0.0,88,0.00,,OVC,0.00,0.00,VWS V14.00,2013-08-29 02:05:00,
2013-08-28 22:10:00,72.6,68.8,29.87,ESE,112,0.0,0.0,88,0.00,,OVC,0.00,0.00,VWS V14.00,2013-08-29 02:10:00,
2013-08-28 22:15:00,72.6,68.8,29.87,ESE,112,0.0,0.0,88,0.00,,OVC,0.00,0.00,VWS V14.00,2013-08-29 02:15:00,
2013-08-28 22:20:00,72.6,68.8,29.87,ESE,112,0.0,0.0,88,0.00,,OVC,0.00,0.00,VWS V14.00,2013-08-29 02:20:00,
2013-08-28 22:25:00,72.5,68.8,29.88,East,90,0.0,0.0,88,0.00,,OVC,0.00,0.00,VWS V14.00,2013-08-29 02:25:00,
2013-08-28 22:30:00,72.5,68.8,29.87,East,90,0.0,0.0,88,0.00,,OVC,0.00,0.00,VWS V14.00,2013-08-29 02:30:00,
2013-08-28 22:35:00,72.3,68.9,29.87,East,90,0.0,0.0,89,0.00,,OVC,0.00,0.00,VWS V14.00,2013-08-29 02:35:00,
2013-08-28 22:40:00,72.3,68.9,29.88,East,90,0.0,0.0,89,0.00,,OVC,0.00,0.00,VWS V14.00,2013-08-29 02:40:00,
2013-08-28 22:45:00,72.3,68.9,29.88,East,90,0.0,0.0,89,0.00,,OVC,0.00,0.00,VWS V14.00,2013-08-29 02:45:00,
2013-08-28 22:50:00,72.1,68.7,29.88,East,90,0.0,0.0,89,0.00,,OVC,0.00,0.00,VWS V14.00,2013-08-29 02:50:00,
2013-08-28 22:55:00,72.1,68.7,29.88,East,90,0.0,0.0,89,0.00,,OVC,0.00,0.00,VWS V14.00,2013-08-29 02:55:00,
2013-08-28 23:00:00,71.9,68.5,29.88,East,90,0.0,0.0,89,0.00,,OVC,0.00,0.00,VWS V14.00,2013-08-29 03:00:00,
2013-08-28 23:05:00,71.9,68.5,29.88,East,90,0.0,0.0,89,0.00,,OVC,0.00,0.00,VWS V14.00,2013-08-29 03:05:00,
2013-08-28 23:10:00,71.7,68.3,29.88,East,90,0.0,0.0,89,0.00,,OVC,0.00,0.00,VWS V14.00,2013-08-29 03:10:00,
2013-08-28 23:15:00,71.7,68.3,29.88,East,90,0.0,0.0,89,0.00,,OVC,0.00,0.00,VWS V14.00,2013-08-29 03:15:00,
2013-08-28 23:20:00,71.7,68.3,29.89,East,90,0.0,0.0,89,0.00,,OVC,0.00,0.00,VWS V14.00,2013-08-29 03:20:00,
2013-08-28 23:25:00,71.7,68.3,29.89,East,90,0.0,0.0,89,0.00,,OVC,0.00,0.00,VWS V14.00,2013-08-29 03:25:00,
2013-08-28 23:30:00,71.7,68.3,29.88,East,90,0.0,0.0,89,0.00,,OVC,0.00,0.00,VWS V14.00,2013-08-29 03:30:00,
2013-08-28 23:35:00,71.7,68.3,29.87,East,90,0.0,0.0,89,0.00,,OVC,0.00,0.00,VWS V14.00,2013-08-29 03:35:00,
2013-08-28 23:40:00,71.7,68.3,29.87,East,90,0.0,0.0,89,0.00,,OVC,0.00,0.00,VWS V14.00,2013-08-29 03:40:00,
2013-08-28 23:45:00,71.7,68.3,29.87,East,90,0.0,0.0,89,0.00,,OVC,0.00,0.00,VWS V14.00,2013-08-29 03:45:00,
2013-08-28 23:50:00,71.6,68.2,29.87,East,90,0.0,0.0,89,0.00,,OVC,0.00,0.00,VWS V14.00,2013-08-29 03:50:00,
2013-08-28 23:55:00,71.4,68.3,29.87,East,90,0.0,0.0,90,0.00,,OVC,0.00,0.00,VWS V14.00,2013-08-29 03:55:00,